Kelso-Longview, WA
on Thursday, November 8, 2012

Thursday
Previous Day Next Day
Daily Summary
 ActualAverage (KSPB)Record (KSPB)
Temperature
Mean Temperature °F °F  
Max Temperature 48°F °F 57°F (1999)
Min Temperature 33°F °F 30°F (2001)
Degree Days
Heating Degree Days 24    
Month to date heating degree days  
Since 1 July heating degree days  
Cooling Degree Days 0    
Month to date cooling degree days  
Year to date cooling degree days  
Moisture
Dew Point 35°F   
Average Humidity 83    
Maximum Humidity 93    
Minimum Humidity 66    
Precipitation
Precipitation 0.00 in in 0.44 in (2000)
Month to date precipitation  
Year to date precipitation  
Wind
Wind Speed 2 mph   
Max Wind Speed 12 mph   
Max Gust Speed mph   
Visibility 9 miles   
Events     

Key: T is trace of precipitation, MM is missing value
Source: NWS Daily Summary
Time(PST)TemperatureDew PointHumidity Pressure Visibility Wind DirectionWind SpeedGust SpeedPrecipitationEvents Conditions
12:15 AM 39.2°F 35.6°F 87% 29.94 in 10.0 miles Calm Calm - N/A   Mostly Cloudy
12:35 AM 39.2°F 37.4°F 93% 29.93 in 10.0 miles Calm Calm - N/A   Overcast
12:55 AM 41.0°F 37.4°F 87% 29.92 in 10.0 miles Calm Calm - N/A   Overcast
1:15 AM 39.2°F 37.4°F 93% 29.91 in 10.0 miles Calm Calm - N/A   Overcast
1:35 AM 39.2°F 37.4°F 93% 29.90 in 10.0 miles Calm Calm - N/A   Overcast
1:55 AM 39.2°F 35.6°F 87% 29.89 in 10.0 miles Calm Calm - N/A   Scattered Clouds
2:15 AM 37.4°F 33.8°F 87% 29.89 in 10.0 miles NW 3.5 mph - N/A   Partly Cloudy
2:35 AM 37.4°F 35.6°F 93% 29.89 in 1.2 miles Calm Calm - N/A   Mostly Cloudy
2:55 AM 37.4°F 33.8°F 87% 29.88 in 1.5 miles NNW 3.5 mph - N/A   Overcast
3:15 AM 37.4°F 35.6°F 93% 29.87 in 10.0 miles Calm Calm - N/A   Overcast
3:35 AM 39.2°F 35.6°F 87% 29.87 in 10.0 miles Calm Calm - N/A   Overcast
3:55 AM 39.2°F 35.6°F 87% 29.86 in 10.0 miles Calm Calm - N/A   Overcast
4:15 AM 39.2°F 37.4°F 93% 29.86 in 10.0 miles NNW 3.5 mph - N/A   Overcast
4:35 AM 39.2°F 35.6°F 87% 29.85 in 10.0 miles NNW 4.6 mph - N/A   Overcast
4:55 AM 39.2°F 35.6°F 87% 29.85 in 10.0 miles North 5.8 mph - N/A   Overcast
5:15 AM 39.2°F 35.6°F 87% 29.85 in 10.0 miles Calm Calm - N/A   Overcast
5:35 AM 39.2°F 35.6°F 87% 29.84 in 10.0 miles North 4.6 mph - N/A   Overcast
5:55 AM 37.4°F 35.6°F 93% 29.84 in 10.0 miles NNW 3.5 mph - N/A   Overcast
6:15 AM 37.4°F 35.6°F 93% 29.83 in 2.0 miles NNW 4.6 mph - N/A   Overcast
6:35 AM 37.4°F 35.6°F 93% 29.83 in 1.5 miles NNW 6.9 mph - N/A   Overcast
6:55 AM 37.4°F 33.8°F 87% 29.83 in 2.0 miles North 6.9 mph - N/A   Overcast
7:15 AM 37.4°F 33.8°F 87% 29.83 in 3.0 miles NNE 4.6 mph - N/A   Overcast
7:35 AM 37.4°F 33.8°F 87% 29.83 in 8.0 miles NNW 4.6 mph - N/A   Overcast
7:55 AM 37.4°F 33.8°F 87% 29.83 in 10.0 miles North 4.6 mph - N/A   Overcast
8:15 AM 37.4°F 33.8°F 87% 29.82 in 10.0 miles North 4.6 mph - N/A   Overcast
8:35 AM 37.4°F 33.8°F 87% 29.82 in 10.0 miles NNW 4.6 mph - N/A   Overcast
8:55 AM 37.4°F 33.8°F 87% 29.82 in 10.0 miles North 4.6 mph - N/A   Overcast
9:15 AM 37.4°F 33.8°F 87% 29.81 in 10.0 miles NNW 3.5 mph - N/A   Overcast
9:35 AM 39.2°F 35.6°F 87% 29.81 in 10.0 miles NW 3.5 mph - N/A   Mostly Cloudy
9:55 AM 39.2°F 35.6°F 87% 29.80 in 10.0 miles WNW 3.5 mph - N/A   Scattered Clouds
10:15 AM 41.0°F 35.6°F 81% 29.81 in 10.0 miles NNW 6.9 mph - N/A   Clear
10:35 AM 42.8°F 35.6°F 76% 29.81 in 10.0 miles NW 4.6 mph - N/A   Clear
10:55 AM 42.8°F 35.6°F 76% 29.81 in 10.0 miles NNW 9.2 mph - N/A   Clear
11:15 AM 44.6°F 35.6°F 71% 29.80 in 10.0 miles North 9.2 mph - N/A   Partly Cloudy
11:35 AM 44.6°F 35.6°F 71% 29.80 in 10.0 miles NNW 11.5 mph - N/A   Clear
11:55 AM 46.4°F 35.6°F 66% 29.80 in 10.0 miles NNW 9.2 mph - N/A   Clear
12:15 PM 44.6°F 35.6°F 71% 29.79 in 10.0 miles NNW 10.4 mph - N/A   Clear
12:35 PM 44.6°F 35.6°F 71% 29.79 in 10.0 miles NNW 9.2 mph - N/A   Clear
12:55 PM 44.6°F 35.6°F 71% 29.79 in 10.0 miles North 9.2 mph - N/A   Clear
1:15 PM 44.6°F 35.6°F 71% 29.80 in 10.0 miles North 5.8 mph - N/A   Clear
1:35 PM 44.6°F 35.6°F 71% 29.79 in 10.0 miles NNW 8.1 mph - N/A   Clear
1:55 PM 46.4°F 35.6°F 66% 29.79 in 10.0 miles NNE 4.6 mph - N/A   Clear
2:15 PM 46.4°F 37.4°F 71% 29.78 in 10.0 miles NNW 5.8 mph - N/A   Clear
2:35 PM 48.2°F 37.4°F 66% 29.79 in 10.0 miles North 3.5 mph - N/A   Clear
2:55 PM 48.2°F 37.4°F 66% 29.79 in 10.0 miles North 3.5 mph - N/A   Clear
3:15 PM 48.2°F 37.4°F 66% 29.79 in 10.0 miles NW 3.5 mph - N/A   Clear
3:35 PM 48.2°F 37.4°F 66% 29.79 in 10.0 miles NW 3.5 mph - N/A   Clear
3:55 PM 46.4°F 37.4°F 71% 29.79 in 10.0 miles Calm Calm - N/A   Clear
4:15 PM 46.4°F 39.2°F 76% 29.79 in 10.0 miles NNW 3.5 mph - N/A   Clear
4:35 PM 46.4°F 37.4°F 71% 29.79 in 10.0 miles NW 3.5 mph - N/A   Clear
4:55 PM 46.4°F 37.4°F 71% 29.79 in 10.0 miles Calm Calm - N/A   Clear
5:15 PM 44.6°F 37.4°F 76% 29.80 in 10.0 miles Calm Calm - N/A   Clear
5:35 PM 42.8°F 37.4°F 81% 29.80 in 10.0 miles Calm Calm - N/A   Clear
5:55 PM 42.8°F 37.4°F 81% 29.80 in 10.0 miles Calm Calm - N/A   Clear
6:15 PM 39.2°F 35.6°F 87% 29.81 in 10.0 miles Calm Calm - N/A   Clear
6:35 PM 39.2°F 35.6°F 87% 29.81 in 10.0 miles Calm Calm - N/A   Clear
6:55 PM 39.2°F 35.6°F 87% 29.82 in 10.0 miles Calm Calm - N/A   Clear
7:15 PM 39.2°F 35.6°F 87% 29.82 in 10.0 miles Calm Calm - N/A   Clear
7:35 PM 37.4°F 33.8°F 87% 29.82 in 10.0 miles Calm Calm - N/A   Clear
7:55 PM 37.4°F 35.6°F 93% 29.82 in 10.0 miles Calm Calm - N/A   Clear
8:15 PM 37.4°F 33.8°F 87% 29.83 in 10.0 miles Calm Calm - N/A   Clear
8:35 PM 35.6°F 30.2°F 81% 29.83 in 10.0 miles Calm Calm - N/A   Clear
8:55 PM 35.6°F 33.8°F 93% 29.84 in 10.0 miles Calm Calm - N/A   Clear
9:15 PM 35.6°F 32.0°F 87% 29.84 in 8.0 miles Calm Calm - N/A   Clear
9:35 PM 35.6°F 32.0°F 87% 29.84 in 7.0 miles Calm Calm - N/A   Clear
9:55 PM 33.8°F 30.2°F 87% 29.84 in 5.0 miles Calm Calm - N/A   Clear
10:15 PM 33.8°F 30.2°F 87% 29.84 in 6.0 miles Calm Calm - N/A   Clear
10:35 PM 33.8°F 30.2°F 87% 29.84 in 9.0 miles Calm Calm - N/A   Clear
10:55 PM 33.8°F 30.2°F 87% 29.84 in 8.0 miles Calm Calm - N/A   Clear
11:15 PM 33.8°F 30.2°F 87% 29.85 in 9.0 miles Calm Calm - N/A   Clear
11:35 PM 33.8°F 28.4°F 81% 29.86 in 8.0 miles Calm Calm - N/A   Clear
11:55 PM 33.8°F 30.2°F 87% 29.86 in 10.0 miles Calm Calm - N/A   Scattered Clouds
Moon Phase
Nov. 08 Nov. 13 Nov. 20 Nov. 28 Dec. 06
Sunrise:07:03 AM (PST) Moon Rise:12:45 AM (PST)11/8
Sunset:04:46 PM (PST) Moon Set:01:47 PM (PST)11/8

Copyright © 2014 The Weather Underground, Inc.